Flag for Hungary Weather past 2 weeks in Pécs, Hungary

Now
50 °F

Partly sunny.


Feels Like: 50 °F
Forecast: 38 / 58 °F
Wind: 2 mph from Northeast

Location: Pecs / Pogany

Current Time: Apr 19, 2015 at 12:39:01 PM

Latest Report: Apr 19, 2015 at 12:00 PM


Visibility: 37 mi

Pressure: 30.21 "Hg

Humidity: 36%

Dew point: 24 °F

Location of PécsLocation

Historic Weather in Pécs — Graph

°F

Pécs temperature yesterday

Maximum temperature yesterday: 54 °F (at 12:00 AM)
Minimum temperature yesterday: 44 °F (at 11:00 PM)
Average temperature yesterday: 49 °F

Past Weeks' High & Low Weather Summary

 TemperatureHumidityPressure
High76 °F (Apr 16, 3:00 PM)97% (Apr 18, 3:00 AM)30.45 "Hg (Apr 18, 3:00 AM)
Low33 °F (Apr 19, 6:00 AM)28% (Apr 16, 5:00 PM)29.83 "Hg (Apr 17, 7:00 PM)
Average52 °F53%30.18 "Hg
* Reported Apr 4 11:00 AM — Apr 19 11:00 AM, Pécs, Weather by CustomWeather, © 2015

Note: Actual official high and low records may vary slightly from our data, if they occured in-between our weather recording intervals... More about our weather records

Advertising

Pécs weather history for previous 24 hours

 ConditionsComfort  
Time TempWeatherWind HumidityBarometerVisibility
11:00 AM
Sun, Apr 19
49 °FPassing clouds.2 mph47%30.22 "Hg37 mi
10:00 AM47 °FSunny.5 mph55%30.22 "Hg37 mi
9:00 AM43 °FSunny.2 mph60%30.22 "Hg37 mi
8:00 AM40 °FSunny.2 mph65%30.22 "Hg37 mi
7:00 AM34 °FSunny.2 mph76%30.22 "Hg37 mi
6:00 AM33 °FSunny.2 mph76%30.22 "Hg31 mi
5:00 AM35 °FClear.No wind70%30.22 "Hg25 mi
4:00 AM34 °FClear.No wind71%30.22 "Hg25 mi
3:00 AM37 °FClear.3 mph65%30.22 "Hg31 mi
2:00 AM38 °FClear.3 mph65%30.23 "Hg31 mi
1:00 AM40 °FPassing clouds.5 mph59%30.21 "Hg31 mi
12:00 AM42 °FPassing clouds.6 mph54%30.20 "Hg31 mi
11:00 PM
Sat, Apr 18
44 °FOvercast.8 mph45%30.19 "Hg31 mi
10:00 PM45 °FOvercast.7 mph49%30.17 "Hg31 mi
9:00 PM45 °FOvercast.6 mph54%30.16 "Hg31 mi
8:00 PM46 °FOvercast.5 mph60%30.13 "Hg31 mi
7:00 PM46 °FOvercast.6 mph63%30.11 "Hg37 mi
6:00 PM47 °FOvercast.7 mph61%30.11 "Hg37 mi
5:00 PM50 °FOvercast.6 mph49%30.09 "Hg37 mi
4:00 PM50 °FOvercast.6 mph48%30.08 "Hg37 mi
3:00 PM50 °FOvercast.7 mph45%30.08 "Hg37 mi
2:00 PM50 °FOvercast.7 mph46%30.08 "Hg37 mi
1:00 PM49 °FOvercast.5 mph63%30.06 "Hg19 mi
12:00 PM48 °FOvercast.7 mph62%30.06 "Hg19 mi
Weather by CustomWeather, © 2015

See weather overviewHow to use our weather pages